NV6B Weather Reports


time (UTC)temp
C
wind
direction
speed
KPH
gust
KPH
rain 1hr
cm
rain 24hr
cm
rain mn
cm
humidity
%
barometer
mb
20260503022518 23 316 0.0 0.0 0.00 0.00 0.00 38 1007.4
20260503021518 23 316 0.0 3.2 0.00 0.00 0.00 38 1007.3
20260503020518 23 316 0.0 1.6 0.00 0.00 0.00 37 1007.3
20260503015518 23 316 0.0 4.8 0.00 0.00 0.00 36 1007.3
20260503014518 24 314 0.0 6.4 0.00 0.00 0.00 35 1007.2
20260503013518 25 322 0.0 3.2 0.00 0.00 0.00 34 1007.3
20260503012518 25 322 1.6 8.0 0.00 0.00 0.00 33 1007.4
20260503011518 25 1 0.0 4.8 0.00 0.00 0.00 32 1007.6
20260503010517 25 1 0.0 3.2 0.00 0.00 0.00 32 1007.6
20260503005517 26 1 1.6 6.4 0.00 0.00 0.00 31 1007.7
20260503004517 26 359 1.6 12.9 0.00 0.00 0.00 30 1007.6
20260503003517 27 13 3.2 4.8 0.00 0.00 0.00 27 1007.6
20260503002517 27 13 1.6 3.2 0.00 0.00 0.00 26 1007.6
20260503001517 27 13 0.0 6.4 0.00 0.00 0.00 24 1007.8
20260503000517 27 61 3.2 4.8 0.00 0.00 0.00 22 1007.8
20260502235517 28 13 1.6 6.4 0.00 0.00 0.00 22 1007.9
20260502234537 27 43 3.2 6.4 0.00 0.00 0.00 24 1007.9
20260502233516 27 87 0.0 1.6 0.00 0.00 0.00 23 1008.0
20260502232516 28 87 0.0 8.0 0.00 0.00 0.00 25 1008.0
20260502231516 28 56 1.6 6.4 0.00 0.00 0.00 22 1008.0
20260502230516 28 55 0.0 6.4 0.00 0.00 0.00 21 1008.2
20260502225516 28 135 0.0 3.2 0.00 0.00 0.00 21 1008.3
20260502224516 28 135 1.6 11.3 0.00 0.00 0.00 20 1008.4
20260502223516 28 134 6.4 11.3 0.00 0.00 0.00 23 1008.6
20260502222516 28 79 0.0 8.0 0.00 0.00 0.00 23 1008.7
20260502221516 29 155 3.2 11.3 0.00 0.00 0.00 20 1008.7
20260502220516 28 176 4.8 11.3 0.00 0.00 0.00 21 1008.9
20260502215515 28 116 6.4 14.5 0.00 0.00 0.00 22 1009.1
20260502214516 28 120 0.0 11.3 0.00 0.00 0.00 22 1009.2
20260502213515 28 99 4.8 11.3 0.00 0.00 0.00 22 1009.4
20260502212515 28 133 4.8 11.3 0.00 0.00 0.00 23 1009.5
20260502211515 27 139 0.0 9.7 0.00 0.00 0.00 21 1009.5
20260502210515 28 125 4.8 8.0 0.00 0.00 0.00 25 1009.7
20260502205515 27 156 1.6 14.5 0.00 0.00 0.00 24 1009.8
20260502204515 29 75 4.8 16.1 0.00 0.00 0.00 25 1009.9
20260502203515 29 93 11.3 16.1 0.00 0.00 0.00 24 1009.9
20260502202515 29 124 4.8 11.3 0.00 0.00 0.00 25 1010.0
20260502201514 28 62 1.6 27.4 0.00 0.00 0.00 24 1010.1
20260502200514 27 181 4.8 11.3 0.00 0.00 0.00 25 1010.3
20260502195514 28 105 4.8 12.9 0.00 0.00 0.00 26 1010.4
20260502163533 17 197 4.8 12.9 0.00 0.00 0.00 46 1013.2
20260502162512 16 147 3.2 11.3 0.00 0.00 0.00 46 1013.2
20260502161512 16 189 4.8 16.1 0.00 0.00 0.00 47 1013.3
20260502160512 16 123 3.2 16.1 0.00 0.00 0.00 45 1013.3
20260502151511 12 158 1.6 9.7 0.00 0.00 0.00 55 1013.2
20260502150512 12 143 9.7 9.7 0.00 0.00 0.00 58 1013.0
20260502115510 10 141 0.0 6.4 0.00 0.00 0.00 59 1012.2
20260502114509 11 141 4.8 11.3 0.00 0.00 0.00 59 1012.2
20260502113509 11 141 4.8 11.3 0.00 0.00 0.00 59 1012.3
20260502112509 11 130 1.6 8.0 0.00 0.00 0.00 59 1012.3
20260502111509 11 137 4.8 12.9 0.00 0.00 0.00 60 1012.4
20260502110509 10 141 4.8 12.9 0.00 0.00 0.00 61 1012.3
20260502071507 10 132 3.2 9.7 0.00 0.00 0.00 66 1012.6
20260502070507 10 56 4.8 4.8 0.00 0.00 0.00 66 1012.7
20260502065507 10 43 0.0 0.0 0.00 0.00 0.00 65 1012.7
20260502064507 10 43 0.0 0.0 0.00 0.00 0.00 65 1012.8
20260502063507 10 42 0.0 0.0 0.00 0.00 0.00 64 1012.8
20260502032505 18 38 1.6 4.8 0.00 0.00 0.00 41 1012.5
20260502031505 18 37 0.0 4.8 0.00 0.00 0.00 38 1012.3